| time (UTC) | temp F | wind direction | speed MPH | gust MPH | rain 1hr in | rain 24hr in | rain mn in | humidity % | barometer mb |
| 20260510141529 | 63 | 34 | 6.0 | 10.0 | 0.00 | 0.00 | 0.00 | 79 | 1016.3 |
| 20260510140028 | 63 | 328 | 4.0 | 8.0 | 0.00 | 0.00 | 0.00 | 80 | 1016.3 |
| 20260510134526 | 63 | 338 | 3.0 | 6.0 | 0.00 | 0.00 | 0.00 | 82 | 1016.4 |
| 20260510133025 | 63 | 313 | 3.0 | 8.0 | 0.00 | 0.00 | 0.00 | 83 | 1016.9 |
| 20260510131521 | 63 | 237 | 1.0 | 3.0 | 0.00 | 0.00 | 0.00 | 83 | 1016.3 |
| 20260510130027 | 63 | 194 | 0.0 | 0.0 | 0.00 | 0.00 | 0.00 | 83 | 1015.7 |
| 20260510124522 | 63 | 194 | 0.0 | 0.0 | 0.00 | 0.00 | 0.00 | 82 | 1015.5 |
| 20260510123015 | 63 | 141 | 0.0 | 2.0 | 0.00 | 0.00 | 0.00 | 82 | 1014.9 |
| 20260510121514 | 62 | 141 | 0.0 | 1.0 | 0.00 | 0.00 | 0.00 | 81 | 1014.5 |
| 20260510120009 | 62 | 90 | 0.0 | 2.0 | 0.00 | 0.00 | 0.00 | 81 | 1014.0 |
| 20260510114513 | 62 | 43 | 0.0 | 0.0 | 0.00 | 0.00 | 0.00 | 81 | 1013.7 |
| 20260510113012 | 62 | 43 | 0.0 | 2.0 | 0.00 | 0.00 | 0.00 | 80 | 1013.6 |
| 20260510111503 | 63 | 15 | 0.0 | 2.0 | 0.00 | 0.00 | 0.00 | 80 | 1013.4 |
| 20260510110003 | 63 | 41 | 0.0 | 3.0 | 0.00 | 0.01 | 0.00 | 79 | 1013.2 |
| 20260510104501 | 63 | 64 | 0.0 | 2.0 | 0.00 | 0.01 | 0.00 | 79 | 1012.4 |
| 20260510103104 | 63 | 68 | 0.0 | 2.0 | 0.00 | 0.01 | 0.00 | 78 | 1012.8 |
| 20260510101559 | 64 | 61 | 0.0 | 0.0 | 0.00 | 0.01 | 0.00 | 78 | 1012.8 |
| 20260510100100 | 64 | 61 | 0.0 | 2.0 | 0.00 | 0.01 | 0.00 | 79 | 1012.5 |
| 20260510100001 | 64 | 61 | 0.0 | 2.0 | 0.00 | 0.01 | 0.00 | 79 | 1012.4 |
| 20260510094557 | 64 | 39 | 1.0 | 3.0 | 0.00 | 0.01 | 0.00 | 78 | 1012.5 |
| 20260510093056 | 64 | 98 | 0.0 | 2.0 | 0.00 | 0.01 | 0.00 | 77 | 1012.8 |
| 20260510091558 | 65 | 71 | 0.0 | 0.0 | 0.00 | 0.01 | 0.00 | 75 | 1012.3 |
| 20260510084558 | 67 | 21 | 0.0 | 0.0 | 0.00 | 0.01 | 0.00 | 72 | 1011.6 |
| 20260510083048 | 67 | 21 | 0.0 | 3.0 | 0.00 | 0.01 | 0.00 | 72 | 1010.9 |
| 20260510081548 | 68 | 69 | 0.0 | 2.0 | 0.00 | 0.01 | 0.00 | 68 | 1010.8 |
| 20260510080051 | 69 | 302 | 0.0 | 2.0 | 0.00 | 0.01 | 0.00 | 68 | 1010.8 |
| 20260510074546 | 69 | 119 | 0.0 | 2.0 | 0.00 | 0.01 | 0.00 | 66 | 1010.7 |
| 20260510073045 | 69 | 39 | 0.0 | 8.0 | 0.00 | 0.01 | 0.00 | 67 | 1010.5 |
| 20260510071543 | 68 | 119 | 1.0 | 3.0 | 0.00 | 0.01 | 0.00 | 71 | 1011.1 |
| 20260510070049 | 68 | 285 | 2.0 | 6.0 | 0.00 | 0.01 | 0.00 | 72 | 1011.2 |
| 20260510064558 | 67 | 155 | 4.0 | 10.0 | 0.00 | 0.02 | 0.00 | 74 | 1009.8 |
| 20260510063044 | 66 | 147 | 2.0 | 5.0 | 0.00 | 0.02 | 0.00 | 79 | 1011.2 |
| 20260510061545 | 67 | 175 | 1.0 | 2.0 | 0.00 | 0.02 | 0.00 | 78 | 1012.0 |
| 20260510060037 | 67 | 336 | 1.0 | 2.0 | 0.00 | 0.02 | 0.00 | 76 | 1012.6 |
| 20260510054528 | 68 | 336 | 0.0 | 0.0 | 0.00 | 0.02 | 0.00 | 74 | 1012.9 |
| 20260510053024 | 68 | 336 | 0.0 | 0.0 | 0.00 | 0.02 | 0.00 | 72 | 1013.1 |
| 20260510051523 | 69 | 336 | 0.0 | 2.0 | 0.00 | 0.02 | 0.00 | 71 | 1013.0 |
| 20260510050020 | 69 | 349 | 1.0 | 4.0 | 0.00 | 0.02 | 0.00 | 71 | 1012.9 |
| 20260510044526 | 68 | 355 | 2.0 | 3.0 | 0.00 | 0.02 | 0.02 | 71 | 1012.9 |
| 20260510043018 | 67 | 20 | 1.0 | 3.0 | 0.00 | 0.02 | 0.02 | 74 | 1012.5 |
| 20260510041515 | 68 | 99 | 0.0 | 1.0 | 0.00 | 0.02 | 0.02 | 75 | 1011.7 |
| 20260510040015 | 68 | 99 | 0.0 | 0.0 | 0.00 | 0.02 | 0.02 | 75 | 1011.3 |
| 20260510034513 | 68 | 99 | 0.0 | 0.0 | 0.00 | 0.03 | 0.02 | 73 | 1011.2 |
| 20260510033013 | 69 | 99 | 0.0 | 0.0 | 0.00 | 0.03 | 0.02 | 71 | 1011.4 |
| 20260510031512 | 69 | 111 | 0.0 | 2.0 | 0.00 | 0.03 | 0.02 | 71 | 1011.4 |
| 20260510030011 | 69 | 120 | 0.0 | 1.0 | 0.00 | 0.03 | 0.02 | 69 | 1011.5 |
| 20260510024510 | 70 | 120 | 0.0 | 0.0 | 0.00 | 0.03 | 0.02 | 65 | 1011.1 |
| 20260510023011 | 71 | 120 | 0.0 | 0.0 | 0.00 | 0.03 | 0.02 | 63 | 1010.6 |
| 20260510021513 | 72 | 120 | 0.0 | 2.0 | 0.00 | 0.03 | 0.02 | 65 | 1010.0 |
| 20260510020009 | 74 | 120 | 0.0 | 0.0 | 0.00 | 0.03 | 0.02 | 58 | 1009.7 |
| 20260510014515 | 75 | 120 | 0.0 | 1.0 | 0.00 | 0.03 | 0.02 | 57 | 1009.3 |
| 20260510013015 | 76 | 120 | 0.0 | 0.0 | 0.00 | 0.03 | 0.02 | 56 | 1008.9 |
| 20260510011508 | 77 | 120 | 0.0 | 2.0 | 0.00 | 0.03 | 0.02 | 51 | 1008.6 |
| 20260510010008 | 78 | 136 | 0.0 | 3.0 | 0.00 | 0.03 | 0.02 | 50 | 1008.6 |
| 20260510004507 | 79 | 168 | 1.0 | 2.0 | 0.00 | 0.08 | 0.02 | 48 | 1008.3 |
| 20260510003007 | 80 | 155 | 1.0 | 3.0 | 0.00 | 0.08 | 0.02 | 47 | 1008.3 |
| 20260510001507 | 80 | 169 | 1.0 | 4.0 | 0.00 | 0.08 | 0.02 | 43 | 1008.2 |
| 20260510000005 | 81 | 188 | 2.0 | 6.0 | 0.00 | 0.08 | 0.02 | 39 | 1008.3 |
| 20260509234517 | 82 | 138 | 2.0 | 8.0 | 0.00 | 0.73 | 0.02 | 36 | 1008.3 |
| 20260509233008 | 82 | 109 | 2.0 | 7.0 | 0.00 | 0.73 | 0.02 | 36 | 1008.5 |
| 20260509231501 | 83 | 178 | 2.0 | 7.0 | 0.00 | 0.73 | 0.02 | 35 | 1008.5 |
| 20260509230001 | 84 | 126 | 2.0 | 6.0 | 0.00 | 1.05 | 0.02 | 38 | 1008.5 |
| 20260509224604 | 84 | 164 | 3.0 | 6.0 | 0.00 | 1.05 | 0.02 | 34 | 1008.6 |
| 20260509223058 | 84 | 164 | 2.0 | 7.0 | 0.00 | 1.05 | 0.02 | 35 | 1008.7 |
| 20260509221558 | 84 | 174 | 3.0 | 7.0 | 0.00 | 1.05 | 0.02 | 35 | 1009.0 |
| 20260509220054 | 85 | 198 | 3.0 | 7.0 | 0.00 | 1.05 | 0.02 | 37 | 1009.2 |
| 20260509214552 | 85 | 202 | 0.0 | 7.0 | 0.00 | 1.05 | 0.02 | 34 | 1009.2 |
| 20260509213050 | 85 | 177 | 2.0 | 6.0 | 0.00 | 1.05 | 0.02 | 34 | 1009.1 |
| 20260509211600 | 85 | 146 | 2.0 | 7.0 | 0.00 | 1.05 | 0.02 | 33 | 1009.3 |
| 20260509210058 | 85 | 253 | 3.0 | 7.0 | 0.00 | 1.05 | 0.02 | 35 | 1009.6 |
| 20260509204544 | 85 | 153 | 2.0 | 7.0 | 0.00 | 1.05 | 0.02 | 37 | 1009.7 |
| 20260509203046 | 85 | 169 | 3.0 | 6.0 | 0.00 | 1.05 | 0.02 | 39 | 1009.7 |
| 20260509201553 | 85 | 144 | 4.0 | 7.0 | 0.00 | 1.05 | 0.02 | 35 | 1009.9 |
| 20260509200039 | 84 | 194 | 1.0 | 6.0 | 0.00 | 1.05 | 0.02 | 38 | 1010.1 |
| 20260509194537 | 84 | 175 | 4.0 | 9.0 | 0.00 | 1.05 | 0.02 | 39 | 1010.3 |
| 20260509193039 | 84 | 165 | 3.0 | 7.0 | 0.00 | 1.05 | 0.02 | 38 | 1010.3 |
| 20260509191539 | 84 | 154 | 2.0 | 7.0 | 0.00 | 1.05 | 0.02 | 40 | 1010.4 |
| 20260509190035 | 83 | 176 | 1.0 | 5.0 | 0.00 | 1.05 | 0.02 | 47 | 1010.3 |
| 20260509184629 | 83 | 172 | 1.0 | 4.0 | 0.00 | 1.05 | 0.02 | 46 | 1010.5 |
| 20260509183033 | 82 | 206 | 1.0 | 5.0 | 0.00 | 1.05 | 0.02 | 52 | 1010.6 |
| 20260509181524 | 82 | 154 | 1.0 | 4.0 | 0.00 | 1.05 | 0.02 | 58 | 1010.9 |
| 20260509180023 | 81 | 112 | 1.0 | 7.0 | 0.00 | 1.05 | 0.02 | 61 | 1011.0 |
| 20260509174520 | 80 | 162 | 2.0 | 8.0 | 0.00 | 1.05 | 0.02 | 63 | 1011.1 |
| 20260509173024 | 79 | 148 | 2.0 | 8.0 | 0.00 | 1.05 | 0.02 | 69 | 1011.2 |
| 20260509171521 | 78 | 34 | 1.0 | 6.0 | 0.00 | 1.05 | 0.02 | 74 | 1011.3 |
| 20260509170008 | 76 | 121 | 1.0 | 4.0 | 0.00 | 1.05 | 0.02 | 83 | 1011.4 |
| 20260509164504 | 73 | 117 | 1.0 | 7.0 | 0.00 | 1.05 | 0.02 | 92 | 1011.5 |
| 20260509163107 | 72 | 205 | 2.0 | 5.0 | 0.00 | 1.05 | 0.02 | 94 | 1011.8 |
| 20260509161558 | 70 | 121 | 2.0 | 4.0 | 0.00 | 1.05 | 0.02 | 95 | 1011.5 |
| 20260509160052 | 68 | 153 | 2.0 | 6.0 | 0.00 | 1.05 | 0.02 | 96 | 1011.5 |
| 20260509154600 | 67 | 65 | 1.0 | 6.0 | 0.00 | 1.05 | 0.02 | 97 | 1011.3 |
| 20260509153047 | 66 | 165 | 1.0 | 5.0 | 0.00 | 1.05 | 0.02 | 97 | 1011.3 |
| 20260509151549 | 65 | 158 | 1.0 | 4.0 | 0.00 | 1.05 | 0.02 | 97 | 1011.5 |
| 20260509150045 | 64 | 238 | 2.0 | 4.0 | 0.00 | 1.05 | 0.02 | 97 | 1011.5 |
| 20260509144547 | 63 | 185 | 0.0 | 2.0 | 0.00 | 1.05 | 0.02 | 97 | 1011.5 |
| 20260509143048 | 61 | 207 | 0.0 | 3.0 | 0.00 | 1.05 | 0.02 | 97 | 1011.5 |